GFSSE_850_spd_273.txt.gz
Wind_Speed
15 16 16 16 15 15 15 15 15 15 15 15 14 12 12 12 12 12 13 13 13 13 13 14 15 14 13 12 10 10 8 8 8 8 10 11 8 8 9 9 11 11 10
18 16 16 16 16 15 15 15 14 14 14 12 11 11 10 10 10 10 11 12 11 11 10 11 10 10 10 9 9 9 6 6 7 5 5 6 6 6 8 7 10 9 9
17 16 15 14 15 14 14 14 15 14 13 13 12 11 11 11 11 11 10 11 10 9 8 7 8 8 8 8 11 9 7 4 4 4 5 4 3 4 6 6 8 7 7
17 16 15 14 15 14 15 12 14 13 13 13 12 12 11 10 10 9 9 9 8 8 7 7 6 7 7 6 7 8 7 6 5 4 6 5 6 5 6 5 8 7 11
17 15 15 15 14 14 14 13 12 12 11 11 11 10 9 8 8 7 7 6 6 6 5 5 5 5 7 8 7 9 9 8 5 6 3 8 5 4 5 4 6 9 9
16 15 14 13 14 14 13 12 11 10 9 9 9 8 7 6 7 6 5 4 4 4 4 3 3 3 4 5 7 8 8 8 7 8 8 6 5 4 3 5 5 5 7
16 15 14 13 14 13 12 11 11 10 9 9 9 8 7 6 5 5 5 5 4 3 4 4 4 4 3 3 5 6 8 9 10 10 8 5 4 3 3 3 5 6 6
17 16 15 14 14 13 13 12 10 9 9 9 8 7 7 6 6 5 6 6 5 4 4 3 3 2 2 3 4 7 8 11 13 13 9 8 6 6 4 4 4 6 7
16 16 16 16 16 14 13 12 11 11 11 11 11 10 9 8 8 7 6 5 4 3 2 1 1 1 2 3 4 5 8 10 12 10 10 8 8 7 4 4 5 6 8
18 18 17 17 16 16 14 13 13 14 14 13 13 10 9 8 6 5 4 2 3 3 2 3 4 4 5 5 5 6 8 9 11 11 9 8 8 8 6 6 7 8 8
19 17 17 17 17 16 15 15 15 15 12 9 8 6 6 5 4 4 4 4 2 3 3 3 4 5 6 5 3 3 5 8 9 8 8 8 9 9 8 7 7 9 10
18 17 18 18 20 18 15 14 12 8 7 6 5 7 4 4 4 3 2 2 3 3 2 2 3 3 5 5 5 6 7 7 9 7 5 6 7 7 8 7 8 10 12
18 18 20 20 18 15 14 12 10 8 6 7 5 5 3 1 3 2 2 5 3 3 5 3 4 6 5 6 7 7 9 9 11 10 9 7 8 6 8 6 6 7 9
14 19 19 17 15 13 11 10 7 8 7 5 5 4 4 2 1 3 4 6 3 5 4 5 6 6 7 10 10 10 11 10 10 13 13 11 9 10 10 8 6 5 6
18 21 18 15 13 12 11 9 8 7 6 5 2 3 3 2 3 5 6 6 5 6 3 2 5 7 7 9 11 14 15 13 11 13 12 14 14 13 11 9 8 7 8
16 17 13 11 12 11 10 6 5 5 4 4 2 2 4 6 3 3 5 6 5 4 5 2 3 6 7 10 14 15 16 17 14 13 14 15 15 16 13 11 11 10 12
17 15 13 11 9 10 9 7 7 4 4 8 4 3 3 7 8 2 3 4 4 2 3 7 6 7 8 10 13 17 17 16 17 14 13 13 17 16 14 13 13 13 16
19 17 14 13 14 12 13 11 11 8 8 6 4 4 1 2 4 4 2 5 3 5 6 6 8 9 8 11 19 21 17 15 17 16 13 13 17 17 17 15 15 15 16
22 17 15 14 16 16 13 12 10 9 8 7 8 8 5 1 1 1 2 3 4 9 6 8 10 9 8 11 16 14 12 9 16 16 12 14 15 16 15 14 11 8 9
21 16 14 15 16 16 14 12 10 9 7 7 7 10 9 4 1 3 5 6 5 4 6 4 7 8 9 11 11 9 11 9 6 7 12 15 14 14 11 11 9 6 6
22 18 17 19 19 17 15 13 9 5 7 6 7 10 8 8 5 4 6 7 5 5 4 3 4 6 7 8 3 1 3 2 4 7 9 13 13 10 11 10 9 7 6
23 20 20 22 21 20 17 15 12 7 8 10 8 7 7 4 6 7 8 7 6 6 3 4 5 4 7 7 6 1 2 1 2 5 7 11 12 13 11 11 11 10 8
26 23 24 26 23 21 18 16 15 10 8 11 11 8 8 6 6 5 6 5 6 7 5 8 7 7 9 7 4 2 3 5 7 3 7 13 14 15 14 14 14 12 12
27 23 24 25 26 23 21 21 19 15 12 12 13 12 14 13 10 9 8 10 9 9 9 8 10 10 11 8 5 5 5 5 7 7 12 18 17 15 16 17 15 14 15
28 27 24 24 24 23 25 26 24 20 17 14 14 11 9 12 13 11 13 14 15 14 12 11 11 11 11 10 9 10 10 9 19 12 12 14 15 14 13 17 15 13 13
31 29 25 24 26 24 24 25 25 25 21 20 17 14 12 13 14 14 15 16 16 15 15 14 14 14 15 14 13 14 15 13 15 5 13 16 17 15 15 15 14 11 12

GFSSE_850_spd_276.txt.gz
Wind_Speed
16 15 16 16 15 14 15 15 16 17 17 16 15 15 14 14 13 13 14 15 14 13 13 16 14 13 11 10 8 8 8 9 9 8 9 10 9 9 9 10 11 12 11
18 17 16 16 14 14 15 14 13 13 12 11 11 11 11 11 11 11 11 12 12 12 12 13 12 12 9 8 6 8 7 6 5 6 5 6 5 7 9 9 10 12 10
17 16 17 16 14 14 14 14 13 12 12 12 10 12 12 11 11 11 10 9 9 8 8 8 8 7 7 7 6 5 4 3 1 2 3 2 4 5 4 8 9 9 7
15 15 14 14 14 14 13 14 14 13 12 12 13 13 12 12 11 11 11 10 9 8 7 7 6 5 6 6 7 8 6 3 1 1 3 3 2 3 4 4 5 8 10
15 14 13 14 14 14 13 13 12 11 11 11 11 11 10 9 9 8 8 7 7 7 6 6 7 7 7 6 6 7 5 3 3 3 4 4 4 5 5 3 7 7 8
15 14 15 13 13 13 13 11 10 10 10 9 9 9 8 7 6 6 6 7 6 5 5 5 5 5 5 6 6 5 6 6 5 4 5 5 3 4 4 4 7 8 8
15 14 13 12 12 12 11 10 9 9 9 8 7 7 7 6 5 5 5 6 6 6 6 5 5 4 2 2 3 4 7 8 7 7 7 4 3 2 1 3 4 6 6
14 13 12 12 12 11 10 10 9 9 8 8 7 6 5 4 4 4 5 5 6 6 5 5 4 3 2 2 2 5 7 7 8 9 8 5 3 3 2 3 5 7 8
14 14 13 13 12 11 11 9 8 8 7 8 8 7 6 5 5 5 4 4 3 3 3 2 2 2 2 2 4 6 6 6 7 9 10 7 6 7 6 5 6 6 7
14 14 14 13 12 12 11 10 10 10 10 11 10 9 7 5 4 4 4 3 2 1 1 1 2 3 4 4 3 5 5 6 9 9 9 9 8 9 9 7 6 7 8
15 15 15 14 13 12 11 12 13 12 12 10 7 5 3 2 2 2 1 1 1 1 2 3 4 4 4 4 4 3 4 5 7 8 8 8 9 8 9 7 7 8 10
18 18 16 15 14 13 13 12 12 9 7 6 3 3 3 2 2 1 1 2 1 2 2 2 1 2 3 3 3 4 3 4 6 6 6 7 8 7 8 8 8 9 10
17 18 17 17 15 14 13 10 7 5 4 3 3 2 2 1 2 2 2 3 3 4 5 4 5 4 5 4 4 5 6 7 8 8 8 7 6 7 9 10 8 8 11
17 18 18 17 15 13 11 8 6 5 6 3 2 1 0 0 1 4 4 4 3 4 4 6 7 7 6 8 8 8 9 10 9 9 11 11 10 9 9 9 10 8 10
17 19 18 15 13 11 9 7 6 6 4 4 2 2 3 3 3 1 3 3 5 5 5 7 7 5 6 8 10 11 13 13 12 12 11 13 14 13 12 10 10 10 10
18 19 16 13 11 10 10 8 5 4 3 3 2 2 7 6 1 2 2 3 2 4 7 5 4 5 9 9 11 13 14 16 16 14 11 12 15 15 15 13 12 12 12
16 16 14 12 11 11 10 7 4 3 3 2 2 3 2 5 6 1 1 5 5 4 6 8 8 8 10 11 14 19 18 13 17 16 13 12 14 16 15 17 13 12 14
17 16 13 12 10 11 9 6 6 4 6 4 3 2 1 2 1 3 2 3 2 7 7 7 8 10 13 11 16 19 19 16 14 16 13 11 13 15 17 17 14 13 15
20 19 15 14 10 11 10 9 10 9 9 7 6 5 4 3 1 1 2 5 7 9 10 7 7 10 13 14 20 19 11 8 9 12 13 9 12 15 16 17 15 14 12
23 21 17 15 12 15 14 12 11 10 9 9 7 9 9 5 3 3 6 5 7 7 10 9 7 9 12 15 18 18 12 8 10 9 6 10 12 10 17 19 16 13 11
26 24 21 18 15 19 18 16 13 12 11 8 6 7 7 5 5 4 6 9 9 8 11 8 10 13 12 14 13 12 8 8 9 9 7 10 11 10 19 20 14 10 10
29 26 23 19 19 20 20 15 13 12 10 9 8 5 5 3 4 6 7 10 8 7 10 9 12 12 12 15 13 11 7 8 4 4 14 11 12 15 13 12 13 13 12
32 28 25 22 23 24 21 18 16 13 11 10 9 8 6 6 6 6 6 6 8 7 8 10 10 12 12 14 13 9 6 5 8 7 14 8 14 15 14 13 13 14 13
32 28 25 23 24 24 23 21 18 15 12 10 11 10 10 12 12 10 9 9 10 13 12 13 11 12 14 14 14 13 13 14 7 7 8 12 15 19 16 12 15 15 14
30 28 26 25 27 24 24 22 20 19 15 13 11 12 12 13 12 12 13 14 16 19 19 16 16 15 14 16 16 17 16 16 14 10 10 14 20 20 14 11 14 15 13
31 29 27 25 25 28 26 25 24 23 20 19 17 15 15 13 12 14 15 17 18 20 19 18 19 19 18 18 19 21 20 17 18 18 12 13 19 20 18 13 11 11 13

GFSSE_850_spd_279.txt.gz
Wind_Speed
16 15 15 16 15 16 16 17 17 16 15 14 14 15 15 16 17 17 16 16 14 12 12 12 11 10 9 10 10 10 9 9 10 11 11 10 11 8 11 11 11 11 12
18 16 15 16 14 15 15 15 15 14 13 11 11 12 11 12 13 13 13 12 11 11 13 11 10 8 7 6 5 7 7 6 6 7 7 8 7 9 7 9 12 9 11
17 17 16 15 14 14 12 12 11 10 10 9 9 9 10 10 10 11 10 10 10 10 10 9 8 7 6 5 7 7 4 3 3 1 2 5 5 6 7 8 8 9 8
16 16 15 14 14 13 12 12 11 10 11 10 11 11 11 11 10 9 8 7 7 7 7 7 7 7 8 7 9 7 4 2 2 1 3 3 3 4 7 8 8 10 10
16 16 14 14 13 13 13 12 11 10 10 9 9 10 10 9 9 8 7 7 6 5 5 5 6 7 6 6 6 6 6 4 3 0 1 2 2 2 4 5 7 9 10
16 15 13 13 13 12 12 12 10 9 8 8 8 8 7 7 7 7 6 6 5 5 4 5 5 6 5 5 4 4 6 4 3 1 2 4 3 3 2 3 6 8 8
16 14 12 12 12 11 11 10 9 8 7 7 6 5 5 5 4 4 5 5 5 5 4 4 4 3 2 2 3 4 5 5 4 3 4 3 3 2 2 3 5 7 7
14 14 13 12 11 10 10 9 8 8 7 7 6 5 4 3 3 4 4 6 6 4 4 3 2 2 1 1 1 4 4 4 4 6 7 6 5 4 4 4 6 7 8
14 13 12 11 11 10 9 9 8 8 7 6 6 5 4 4 4 4 4 4 4 3 2 2 1 0 1 2 3 3 3 4 6 8 8 7 6 6 5 6 6 6 7
13 13 13 12 11 10 9 8 9 9 9 8 8 7 6 4 3 2 2 1 1 1 1 1 1 2 3 3 4 4 5 6 5 6 7 8 8 7 7 7 6 6 7
14 14 13 12 11 10 10 10 11 11 10 8 6 3 3 2 2 2 2 2 2 3 1 1 3 3 2 2 3 3 4 5 6 8 9 9 9 9 9 8 7 6 8
16 15 13 13 12 12 12 12 11 9 7 4 2 2 1 2 3 2 2 2 3 3 2 1 2 2 2 3 4 4 3 3 5 6 7 7 7 8 7 8 8 7 7
15 15 13 13 13 13 12 10 6 4 3 2 2 1 1 2 3 4 4 3 3 4 3 4 4 5 5 5 5 5 5 7 8 9 9 9 8 6 8 9 8 9 8
15 15 15 14 14 13 10 7 5 3 3 2 0 1 2 3 3 5 4 4 3 3 4 5 7 7 6 6 7 8 9 9 9 10 10 12 11 9 10 10 9 10 8
16 17 17 16 13 11 9 6 4 3 2 2 1 1 3 2 3 2 2 3 4 5 5 6 7 7 6 7 9 11 12 13 13 13 11 10 12 13 12 12 11 10 9
17 17 18 15 13 11 9 7 5 3 2 1 0 1 3 4 1 2 3 3 3 4 8 9 7 7 8 9 12 12 15 16 16 17 16 12 12 14 12 13 13 12 11
18 19 17 14 12 11 9 8 6 4 1 1 1 1 1 4 3 2 2 4 6 6 11 10 8 8 11 13 14 15 18 20 19 18 18 16 14 14 13 12 13 12 13
17 20 17 16 12 12 11 9 7 5 2 2 2 1 1 3 3 2 2 4 4 8 9 7 6 9 11 13 14 18 19 16 15 15 16 16 17 14 15 11 13 13 13
17 18 17 15 12 13 12 10 8 7 6 5 4 2 2 3 3 2 2 4 6 6 10 10 6 8 12 13 17 19 18 12 10 10 13 15 16 12 10 13 14 14 13
20 19 17 15 14 13 13 13 10 10 8 8 6 7 6 5 3 3 5 4 7 7 10 9 10 12 14 14 17 19 18 13 11 12 6 10 9 9 10 11 18 17 15
23 23 21 20 17 16 17 14 12 10 8 8 7 6 4 5 6 4 5 6 8 6 8 8 11 13 14 16 19 18 16 14 10 8 3 6 10 11 13 12 17 20 16
26 23 23 22 20 19 18 15 12 10 10 9 7 4 4 4 4 6 6 6 6 6 9 9 12 13 15 16 17 16 9 9 10 8 8 7 18 17 13 16 22 22 18
30 29 26 24 21 19 18 17 15 13 11 9 9 9 7 6 7 8 7 7 9 10 12 13 14 15 15 18 17 14 10 12 14 12 14 18 11 11 16 17 18 19 18
25 27 28 25 23 20 21 21 18 16 13 12 11 11 10 10 11 11 10 10 12 14 17 19 18 16 16 16 18 18 16 15 12 13 17 20 15 14 17 17 17 17 17
26 24 26 26 24 22 24 23 21 20 18 15 13 12 13 12 13 11 12 13 14 16 19 23 19 17 18 18 16 14 13 19 24 23 26 24 24 23 19 16 11 15 16
28 25 25 26 25 24 24 24 24 22 20 19 17 14 14 14 14 13 14 15 17 18 20 19 18 19 18 19 16 14 18 25 33 31 30 26 24 22 18 15 8 8 10

GFSSE_850_spd_285.txt.gz
Wind_Speed
11 13 16 15 15 15 15 15 16 16 16 17 17 17 17 16 17 18 17 18 16 14 14 12 12 12 12 12 11 11 11 13 14 13 12 12 12 13 15 16 13 7 12
15 14 15 16 15 14 13 12 12 11 12 13 14 14 14 13 14 13 11 9 8 9 9 8 8 8 8 8 9 9 9 9 10 11 11 11 8 10 11 13 14 9 9
15 14 14 15 14 13 12 11 9 9 9 9 10 11 10 10 10 8 7 6 6 7 6 5 5 4 3 3 4 5 6 6 6 9 12 10 2 6 8 9 8 7 9
13 13 11 13 13 11 9 8 6 7 8 8 8 8 9 8 8 8 7 6 6 5 3 2 1 1 2 2 2 1 3 4 6 9 8 3 4 2 6 6 6 8 7
14 15 11 12 12 10 10 9 8 9 9 9 9 8 8 8 7 6 5 5 3 2 2 2 2 2 2 2 3 4 2 1 4 7 2 3 1 2 3 5 5 6 8
15 15 11 13 12 11 10 9 9 9 8 8 7 6 6 6 5 4 4 3 3 2 2 2 2 3 3 4 4 4 4 3 3 4 2 2 4 3 2 7 8 10 7
14 10 12 12 12 11 10 9 7 7 6 5 5 4 4 4 3 3 2 2 1 1 1 1 1 0 1 2 3 4 4 4 4 3 4 3 8 4 3 5 7 9 8
13 10 9 11 11 10 8 8 7 5 4 3 3 3 3 3 3 2 2 2 1 1 2 1 1 1 0 1 2 4 4 5 4 4 7 5 11 3 3 5 7 10 9
13 12 10 9 9 8 7 6 6 5 4 3 3 3 4 4 4 3 3 2 1 1 1 1 1 1 1 2 4 4 5 5 6 8 8 8 10 7 6 6 7 10 10
12 10 8 7 6 4 2 3 4 4 4 3 4 4 6 7 6 4 2 3 3 2 3 3 3 3 3 4 4 5 5 6 8 9 10 13 14 12 9 8 9 10 10
11 11 10 8 7 8 5 3 3 4 5 6 5 4 4 5 7 3 4 6 4 4 4 3 3 3 3 1 5 6 5 7 11 13 12 16 15 15 12 11 11 11 12
12 10 9 9 8 7 7 3 5 2 2 1 2 1 2 2 1 1 3 4 4 4 2 6 5 5 3 8 9 11 6 6 12 9 13 14 15 13 12 12 11 12 10
12 11 9 10 9 7 8 7 5 5 2 2 2 2 1 2 1 7 3 4 6 9 4 8 7 8 9 11 6 11 10 10 12 15 15 18 15 11 10 9 10 12 11
12 11 10 10 12 9 8 8 5 3 2 1 3 2 2 3 3 2 2 1 5 2 6 5 7 5 5 7 7 10 13 19 11 21 15 14 18 15 13 10 10 11 11
13 12 12 12 13 11 11 5 5 5 1 3 1 1 1 3 2 1 2 0 1 2 4 4 8 3 5 6 7 12 19 20 16 20 18 29 17 17 18 12 10 10 11
13 13 12 12 12 11 7 8 5 2 4 2 3 1 1 1 1 1 2 1 3 5 3 5 6 5 9 8 9 10 14 16 18 18 18 19 16 9 22 14 15 12 21
14 13 14 13 12 10 8 5 2 4 9 2 2 2 0 3 4 3 1 2 3 2 10 8 8 3 6 8 9 10 13 15 17 15 13 11 16 8 6 0 17 11 18
13 15 14 12 11 9 7 6 6 4 1 2 2 3 1 1 1 2 10 10 4 1 4 4 5 4 6 7 9 9 11 14 15 13 12 12 12 14 12 6 19 17 14
15 15 15 14 11 10 9 6 5 3 3 2 2 4 6 2 2 1 3 5 2 3 4 3 4 5 8 6 9 8 11 9 10 11 17 15 10 8 8 5 9 15 17
15 15 15 14 13 11 9 9 7 7 5 4 4 3 3 5 2 3 4 3 3 4 4 6 6 5 7 7 5 9 5 4 5 9 23 16 12 9 8 12 12 13 19
16 16 16 15 14 12 11 9 9 9 9 11 5 6 5 3 4 4 3 4 3 3 6 4 5 8 7 11 9 9 3 9 10 18 20 18 12 6 13 16 17 17 20
19 18 17 17 16 14 12 12 10 8 6 6 3 3 2 4 3 3 2 3 5 4 10 8 8 9 9 13 13 11 7 10 12 16 26 38 22 19 17 13 7 11 14
21 21 20 20 19 17 16 12 10 9 7 4 8 6 8 5 4 6 6 7 8 8 9 4 12 13 12 13 17 14 8 10 13 22 31 41 29 20 19 22 12 12 13
23 21 21 21 21 19 18 16 14 12 12 7 6 5 5 6 7 7 9 10 10 10 11 12 12 13 16 16 16 17 20 23 18 22 31 42 33 13 18 16 13 13 15
22 22 21 22 22 21 20 19 16 16 12 8 8 7 7 7 10 10 9 9 10 11 14 17 17 17 16 17 18 20 19 25 23 26 33 32 17 15 11 10 9 13 15
22 21 21 23 26 24 24 20 22 17 16 12 11 10 8 11 11 9 8 10 13 15 16 16 20 21 19 20 18 16 22 22 26 30 26 30 26 13 7 6 11 15 11

GFSSE_850_spd_291.txt.gz
Wind_Speed
18 17 18 19 21 21 22 21 22 23 22 22 22 23 24 23 23 20 17 17 17 16 13 11 12 12 12 12 14 15 16 15 14 12 12 13 14 16 14 15 13 12 14
21 20 19 19 19 18 19 19 19 20 20 20 20 21 21 20 20 18 16 15 14 13 11 10 10 10 9 10 11 11 11 13 13 13 13 12 11 11 11 11 10 12 13
21 20 19 18 17 17 16 16 15 16 17 17 18 18 17 17 15 12 11 10 9 8 6 6 6 6 6 6 7 7 7 8 9 9 12 9 6 6 9 10 10 9 12
21 19 19 17 16 14 14 12 13 14 15 15 15 14 14 13 11 10 9 9 8 7 6 5 4 3 3 4 4 3 5 6 7 4 2 8 5 3 6 7 10 11 11
19 16 16 15 13 12 12 12 13 14 14 13 12 12 11 10 9 9 8 8 7 6 4 3 3 3 2 3 4 4 5 8 9 4 5 4 3 3 6 8 9 12 13
18 14 12 13 13 13 13 12 13 12 12 12 11 10 9 9 8 7 5 4 3 3 2 3 3 4 3 4 4 2 5 9 11 6 3 5 7 4 4 8 12 12 13
16 15 11 13 14 13 13 12 10 10 11 10 9 9 8 8 7 6 5 4 3 2 1 1 2 2 3 4 3 2 2 8 9 7 3 4 5 6 5 7 11 13 13
12 16 13 12 13 12 11 10 9 9 8 8 8 7 7 7 6 6 5 4 3 2 2 1 1 1 2 1 1 2 2 5 10 10 7 6 9 7 8 7 9 13 13
16 13 12 11 12 10 9 7 6 6 7 7 7 7 8 8 7 6 5 4 3 0 1 1 2 2 3 3 3 2 2 3 8 9 6 11 12 11 9 9 10 13 14
12 11 11 11 10 9 6 6 7 6 7 8 8 8 9 8 7 6 2 2 2 3 4 4 3 4 3 3 2 5 4 4 6 8 10 10 17 14 14 13 11 14 15
10 8 10 9 10 11 8 7 7 8 10 10 8 7 7 5 5 5 2 2 4 4 3 2 2 1 2 2 2 5 5 4 6 4 12 10 14 4 19 14 14 15 16
11 7 8 5 7 8 8 7 10 10 7 6 4 5 4 2 4 5 3 4 5 5 1 3 5 5 6 5 4 10 11 2 12 9 9 14 17 16 12 17 16 15 16
13 15 9 8 9 7 6 9 5 6 6 4 7 1 2 4 2 2 6 4 6 4 7 5 8 8 7 10 4 29 13 6 9 16 8 4 9 11 6 19 21 19 17
15 19 13 12 9 8 5 5 2 2 1 3 2 2 3 4 2 2 4 3 5 4 4 9 5 6 5 10 11 5 1 8 5 12 10 10 10 12 7 13 18 20 20
18 19 17 15 14 15 12 8 6 5 5 1 1 4 3 1 4 1 4 6 4 2 2 7 9 5 7 11 13 9 9 3 6 5 8 10 8 6 11 15 25 18 25
18 17 17 13 20 17 19 13 13 11 8 5 4 4 4 4 1 2 3 5 5 1 2 7 9 8 9 10 10 14 6 1 2 5 9 7 7 6 12 19 20 8 18
20 17 17 14 22 17 17 12 12 7 13 10 9 5 1 2 2 2 5 4 3 2 1 1 6 5 3 7 6 12 4 5 8 8 7 8 7 15 17 13 13 9 15
21 17 17 12 21 16 13 16 12 8 7 8 5 6 3 3 1 1 5 1 3 1 3 4 5 3 9 6 4 6 7 9 11 11 6 3 15 26 11 8 19 17 18
19 19 17 12 12 10 12 13 9 4 6 2 5 9 5 1 6 3 5 8 2 5 3 5 6 9 8 9 10 10 10 15 15 15 17 14 17 20 20 7 12 14 17
20 20 17 18 17 9 8 13 9 6 7 7 8 13 10 4 6 4 3 4 3 3 7 9 10 10 10 13 14 14 17 16 16 19 22 25 21 28 27 16 14 13 13
22 24 21 18 16 15 12 12 12 10 5 9 7 8 3 2 3 2 4 4 3 5 9 12 15 15 14 13 12 18 22 12 14 18 22 24 25 28 29 14 12 8 10
26 23 24 24 22 20 19 14 13 10 7 8 11 5 5 6 6 5 6 4 4 4 9 12 13 17 12 12 18 21 10 13 17 17 22 24 23 26 24 5 10 6 8
26 24 20 28 28 27 21 19 14 13 13 8 8 9 13 8 10 9 8 4 7 8 9 9 12 12 16 20 15 17 12 9 19 21 23 20 24 19 14 2 6 7 9
28 25 21 18 24 23 19 23 20 18 18 14 11 12 15 8 8 6 7 8 9 10 7 8 13 17 19 21 20 16 18 20 20 18 22 29 22 17 6 2 3 3 4
30 28 25 21 19 20 20 23 21 18 17 17 14 12 18 13 12 11 9 11 12 13 9 13 16 18 21 19 18 20 19 16 17 18 28 28 19 12 4 2 3 2 4
33 30 28 26 21 19 21 23 25 21 18 19 10 9 13 9 10 17 13 9 13 13 13 16 19 18 14 15 17 20 21 20 21 21 23 22 11 6 3 6 3 3 4